Flag for Austria Weather past 2 weeks in Wels, Upper Austria, Austria

Now
68 °F

Passing clouds.


Feels Like: 68 °F
Forecast: 54 / 82 °F
Wind: N/A

Location: Linz / Hoersching-Flughafen

Current Time: Jul 31, 2015 at 9:32:08 PM

Latest Report: Jul 31, 2015 at 9:00 PM


Visibility: 28 mi

Pressure: 29.96 "Hg

Humidity: 38%

Dew point: 42 °F

Location of WelsLocation

Historic Weather in Wels — Graph

°F

Wels temperature yesterday

Maximum temperature yesterday: 71 °F (at 5:00 PM)
Minimum temperature yesterday: 56 °F (at 7:00 AM)
Average temperature yesterday: 63 °F

Past Weeks' High & Low Weather Summary

 TemperatureHumidityPressure
High97 °F (Jul 22, 3:00 PM)95% (Jul 20, 3:00 AM)30.08 "Hg (Jul 20, 3:00 AM)
Low54 °F (Jul 31, 6:00 AM)21% (Jul 22, 3:00 PM)29.66 "Hg (Jul 25, 3:00 AM)
Average73 °F61%29.90 "Hg
* Reported Jul 16 8:00 PM — Jul 31 8:00 PM, Wels, Weather by CustomWeather, © 2015

Note: Actual official high and low records may vary slightly from our data, if they occured in-between our weather recording intervals... More about our weather records

Advertising

Wels weather history for previous 24 hours

 ConditionsComfort  
Time TempWeatherWind HumidityBarometerVisibility
8:00 PM
Fri, Jul 31
73 °FScattered clouds.N/A29%29.95 "Hg25 mi
7:00 PM75 °FPassing clouds.5 mph30%29.95 "Hg25 mi
6:00 PM76 °FPassing clouds.5 mph29%29.95 "Hg17 mi
5:00 PM76 °FScattered clouds.N/A28%29.96 "Hg18 mi
4:00 PM76 °FPassing clouds.N/A26%29.98 "Hg16 mi
3:00 PM75 °FPassing clouds.3 mph28%30.00 "Hg17 mi
2:00 PM74 °FPassing clouds.N/A32%30.02 "Hg17 mi
1:00 PM72 °FPassing clouds.N/A35%30.03 "Hg12 mi
12:00 PM72 °FPassing clouds.N/A39%30.04 "Hg22 mi
11:00 AM69 °FPassing clouds.N/A44%30.06 "Hg17 mi
10:00 AM66 °FPassing clouds.N/A55%30.07 "Hg14 mi
9:00 AM62 °FPartly sunny.N/A69%30.08 "Hg11 mi
8:00 AM59 °FPartly sunny.N/A73%30.07 "Hg22 mi
7:00 AM56 °FPartly sunny.N/A83%30.06 "Hg19 mi
6:00 AM54 °FPartly sunny.No wind84%30.05 "Hg25 mi
5:00 AM57 °FPassing clouds.N/A74%30.04 "Hg28 mi
4:00 AM59 °FOvercast.N/A77%30.03 "Hg28 mi
3:00 AM60 °FOvercast.N/A73%30.03 "Hg28 mi
2:00 AM61 °FOvercast.N/A72%30.03 "Hg28 mi
1:00 AM62 °FOvercast.N/A69%30.02 "Hg28 mi
12:00 AM62 °FOvercast.N/A69%30.01 "Hg28 mi
11:00 PM
Thu, Jul 30
64 °FPassing clouds.N/A62%30.01 "Hg31 mi
10:00 PM64 °FPassing clouds.N/A59%29.99 "Hg31 mi
9:00 PM65 °FPassing clouds.N/A56%29.97 "Hg31 mi
Weather by CustomWeather, © 2015

See weather overviewHow to use our weather pages